Kentucky Observed Data For Previous 48 Hours

Caption
Day and Hour Reservoir Elevation (behind dam)* Tailwater Elevation (below dam)* Average Hourly Discharge*
1/27/2020 1 AM CST 354.73 324.30 146,462
1/27/2020 2 AM CST 354.72 324.15 146,263
1/27/2020 3 AM CST 354.69 324.14 145,949
1/27/2020 4 AM CST 354.67 324.06 145,684
1/27/2020 5 AM CST 354.65 324.16 145,450
1/27/2020 6 AM CST 354.62 324.02 145,146
1/27/2020 7 AM CST 354.60 323.89 144,806
1/27/2020 8 AM CST 354.59 323.92 144,675
1/27/2020 9 AM CST 354.57 324.05 144,574
1/27/2020 10 AM CST 354.55 323.96 144,583
1/27/2020 11 AM CST 354.53 323.97 144,978
1/27/2020 12 PM CST 354.50 323.81 144,549
1/27/2020 1 PM CST 354.49 323.89 143,925
1/27/2020 2 PM CST 354.49 323.82 143,861
1/27/2020 3 PM CST 354.48 323.75 143,740
1/27/2020 4 PM CST 354.45 323.75 143,367
1/27/2020 5 PM CST 354.42 323.69 142,996
1/27/2020 6 PM CST 354.40 323.60 142,634
1/27/2020 7 PM CST 354.40 323.60 142,552
1/27/2020 8 PM CST 354.40 323.57 142,344
1/27/2020 9 PM CST 354.39 323.53 142,299
1/27/2020 10 PM CST 354.39 323.46 142,293
1/27/2020 11 PM CST 354.40 323.39 142,419
1/28/2020 12 AM CST 354.39 323.39 142,384
1/28/2020 1 AM CST 354.36 323.28 142,064
1/28/2020 2 AM CST 354.36 323.20 141,560
1/28/2020 3 AM CST 354.36 323.20 141,483
1/28/2020 4 AM CST 354.37 323.13 141,872
1/28/2020 5 AM CST 354.35 323.12 142,509
1/28/2020 6 AM CST 354.35 323.08 142,056
1/28/2020 7 AM CST 354.34 323.01 141,884
1/28/2020 8 AM CST 354.33 323.02 141,785
1/28/2020 9 AM CST 354.33 323.08 141,685
1/28/2020 10 AM CST 354.31 322.98 141,504
1/28/2020 11 AM CST 354.30 323.00 141,397
1/28/2020 12 PM CST 354.29 322.92 141,252
1/28/2020 1 PM CST 354.30 322.67 136,741
1/28/2020 2 PM CST 354.33 322.48 126,821
1/28/2020 3 PM CST 354.34 322.29 116,145
1/28/2020 4 PM CST 354.33 322.18 113,832
1/28/2020 5 PM CST 354.33 322.18 113,772
1/28/2020 6 PM CST 354.32 322.05 113,678
1/28/2020 7 PM CST 354.32 322.06 113,915
1/28/2020 8 PM CST 354.32 322.00 114,258
1/28/2020 9 PM CST 354.31 321.90 114,143
1/28/2020 10 PM CST 354.32 321.89 114,153
1/28/2020 11 PM CST 354.32 321.85 114,067
1/29/2020 12 AM CST 354.32 321.79 114,048
1/29/2020 1 AM CST 354.31 321.77 114,014
1/29/2020 2 AM CST 354.31 321.72 113,916
1/29/2020 3 AM CST 354.28 321.65 114,062
1/29/2020 4 AM CST 354.31 321.67 113,740
1/29/2020 5 AM CST 354.31 321.68 113,683
1/29/2020 6 AM CST 354.29 321.71 113,756
1/29/2020 7 AM CST 354.29 321.65 113,842
1/29/2020 8 AM CST 354.25 321.55 113,463
1/29/2020 9 AM CST 354.27 321.61 113,073
1/29/2020 10 AM CST 354.26 321.63 113,799
1/29/2020 11 AM CST 354.23 321.65 114,124
1/29/2020 12 PM CST 354.23 321.49 114,008

Elevations are in feet above sea level. Discharges are in cubic feet per second and are reported at the end of the hour.